SCP
0 0 0 0 0 0 0 0 0 0 0 0 0 0 0 0 0 0 0 0 0 0 0 0 0 0 0 0 0 0 0 0 0 0 0 0 0 0 0 0 0 0 0 0 0 0 0 0 0
0 0 0 0 0 0 0 0 0 0 0 0 0 0 0 0 0 0 0 0 0 0 0 0 0 0 0 0 0 0 0 0 0 0 0 0 0 0 0 0 0 0 0 0 0 0 0 0 0
0 0 0 0 0 0 0 0 0 0 0 0 0 0 0 0 0 0 0 0 0 0 0 0 0 0 0 0 0 0 0 0 0 0 0 0 0 0 0 0 0 0 0 0 0 0 0 0 0
0 0 0 0 0 0 0 0 0 0 0 0 0 0 0 0 0 0 0 0 0 0 0 0 0 0 0 0 0 0 0 0 0 0 0 0 0 0 0 0 0 0 0 0 0 0 0 0 0
0 0 0 0 0 0 0 0 0 0 0 0 0 0 0 0 0 0 0 0 0 0 0 0 0 0 0 0 0 0 0 0 0 0 0 0 0 0 0 0 0 0 0 0 0 0 0 0 0
0 0 0 0 0 0 0 0 0 0 0 0 0 0 0 0 0 0 0 0 0 0 0 0 0 0 0 0 0 0 0 0 0 0 0 0 0 0 0 0 0 0 0 0 0 0 0 0 0
0 0 0 0 0 0 0 0 0 0 0 0 0 0 0 0 0 0 0 0 0 0 0 0 0 0 0 0 0 0 0 0 0 0 0 0 0 0 0 0 0 0 0 0 0 0 0 0 0
0 0 0 0 0 0 0 0 0 0 0 0 0 0 0 0 0 0 0 0 0 0 0 0 0 0 0 0 0 0 0 0 0 0 0 0 0 0 0 0 0 0 0 0 0 0 0 0 0
0 0 0 0 0 0 0 0 0 0 0 0 0 0 0 0 0 0 0 0 0 0 0 0 0 0 0 0 0 0 0 0 0 0 0 0 0 0 0 0 0 0 0 0 0 0 0 0 0
0 0 0 0 0 0 0 0 0 0 0 0 0 0 0 0 0 0 0 0 0 0 0 0 0 0 0 0 0 0 0 0 0 0 0 0 0 0 0 0 0 0 0 0 0 0 0 0 0
0 0 0 0 0 0 0 0 0 0 0 0 0 0 0 0 0 0 0 0 0 0 0 0 0 0 0 0 0 0 0 0 0 0 0 0 0 0 0 0 0 0 0 0 0 0 0 0 0
0 0 0 0 0 0 0 0 0 0 0 0 0 0 0 0 0 0 0 0 0 0 0 0 0 0 0 0 0 0 0 0 0 0 0 0 0 0 0 0 0 0 0 0 0 0 0 0 0
0 0 0 0 0 0 0 0 0 0 0 0 0 0 0 0 0 0 0 0 0 0 0 0 0 0 0 0 0 0 0 0 0 0 0 0 0 0 0 0 0 0 0 0 0 0 0 0 0
0 0 0 0 0 0 0 0 0 0 0 0 0 0 0 0 0 0 0 0 0 0 0 0 0 0 0 0 0 0 0 0 0 0 0 0 0 0 0 0 0 0 0 0 0 0 0 0 0
0 0 0 0 0 0 0 0 0 0 0 0 0 0 0 0 0 0 0 0 0 0 0 0 0 0 0 0 0 -0 -0 0 0 0 0 0 0 0 0 0 0 0 0 0 0 0 0 0 0
0 0 0 0 0 0 0 0 0 0 0 0 0 0 0 0 0 0 0 0 0 0 0 0 0 0 0 0 0 -0 -0 0 0 0 0 0 0 0 0 0 0 0 0 0 0 0 0 0 0
0 0 0 0 0 0 0 0 0 0 0 0 0 0 0 0 0 0 0 0 0 0 0 0 0 0 0 0 0 -0 0 0 0 0 0 0 0 0 0 0 0 0 0 0 0 0 0 0 0
0 0 0 0 0 0 0 0 0 0 0 0 0 0 0 0 0 0 0 0 0 0 0 0 0 0 0 0 0 0 0 0 0 0 0 0 0 0 0 0 0 0 0 0 0 0 0 0 0
0 0 0 0 0 0 0 0 0 0 0 0 0 0 0 0 0 0 0 0 0 0 0 0 0 0 0 0 0 0 0 0 0 0 0 0 0 0 0 0 0 0 0 0 0 0 0 0 0
0 0 0 0 0 0 0 0 0 0 0 0 0 0 0 0 0 0 0 0 0 0 0 0 0 0 0 0 0 0 0 0 0 0 0 0 0 0 0 0 0 0 0 0 0 0 0 0 0
0 0 0 0 0 0 0 0 0 0 0 0 0 0 0 0 0 0 0 0 0 0 0 0 0 0 0 0 0 0 0 0 0 0 0 0 0 0 0 0 0 0 0 0 0 0 0 0 0
0 0 0 0 0 0 0 0 0 0 0 0 0 0 0 0 0 0 0 0 0 0 0 0 0 0 0 0 0 0 0 0 0 0 0 0 0 0 0 0 0 0 0 0 0 0 0 0 0
0 0 0 0 0 0 0 0 0 0 0 0 0 0 0 0 0 0 0 0 0 0 0 0 0 0 0 0 0 0 0 0 0 0 0 0 0 0 0 0 0 0 0 0 0 0 0 0 0
0 0 0 0 0 0 0 0 0 0 0 0 0 0 0 0 0 0 0 0 0 0 0 0 0 0 0 0 0 0 0 0 0 0 0 0 0 0 0 0 0 0 0 0 0 0 0 0 0
0 0 0 0 0 0 0 0 0 0 0 0 0 0 0 0 0 0 0 0 0 0 0 0 0 0 0 0 0 0 0 0 0 0 0 0 0 0 0 0 0 0 0 0 0 0 0 0 0
0 0 0 0 0 0 0 0 0 0 0 0 0 0 0 0 0 0 0 0 0 0 0 0 0 0 0 0 0 0 0 0 0 0 0 0 0 0 0 0 0 0 0 0 0 0 0 0 0
0 0 0 0 0 0 0 0 0 0 0 0 0 0 0 0 0 0 0 0 0 0 0 0 0 0 0 0 0 0 0 0 0 0 0 0 0 0 0 0 0 0 0 0 0 0 0 0 0
0 0 0 0 0 0 0 0 0 0 0 0 0 0 0 0 0 0 0 0 0 0 0 0 0 0 0 0 0 0 0 0 0 0 0 0 0 0 0 0 0 0 0 0 0 0 0 0 0
0 0 0 0 0 0 0 0 0 0 0 0 0 0 0 0 0 0 0 0 0 0 0 0 0 0 0 0 0 0 0 0 0 0 0 0 0 0 0 0 0 0 0 0 0 0 0 0 0
0 0 0 0 0 0 0 0 0 0 0 0 0 0 0 0 0 0 0 0 0 0 0 0 0 0 0 0 0 0 0 0 0 0 0 0 0 0 0 0 0 0 0 0 0 0 0 0 0
Wind_Speed
3 3 3 4 6 6 2 1 0 1 2 2 4 6 6 4 2 3 0 2 3 2 1 2 5 6 7 8 8 8 9 9 9 9 9 9 10 10 9 9 9 8 8 9 9 9 9 8 8
1 2 4 5 6 3 1 1 1 1 3 4 4 5 5 4 3 4 1 1 3 3 2 2 5 7 8 8 8 8 9 9 9 9 9 10 10 10 9 9 8 8 8 9 9 9 9 8 8
2 3 5 5 4 3 1 0 2 3 3 2 4 4 4 3 3 3 2 3 4 3 3 3 6 7 8 8 9 9 10 9 9 9 10 10 9 9 9 8 8 8 8 8 8 8 8 8 8
3 5 5 5 3 1 2 1 2 4 3 4 4 4 3 2 2 3 4 5 5 4 3 3 7 7 8 8 9 9 9 9 10 10 10 10 9 9 8 7 7 7 7 7 7 8 8 8 8
4 5 6 3 2 2 1 0 2 3 3 3 4 4 3 4 4 6 5 5 5 3 3 3 7 7 8 8 9 9 9 9 10 10 9 9 8 8 8 7 7 7 7 7 7 7 7 7 8
5 5 5 2 1 2 1 0 2 3 3 3 4 4 2 2 4 5 5 4 4 4 3 3 6 7 7 8 8 9 9 9 9 9 9 9 9 8 7 6 7 7 7 6 6 7 7 8 8
5 4 3 2 1 1 1 1 3 3 3 2 4 5 2 1 2 4 5 5 4 4 4 3 3 4 6 7 8 8 8 9 9 9 9 8 8 8 7 7 6 6 6 6 5 6 7 7 7
4 5 3 1 2 1 0 2 2 3 3 2 3 5 4 4 4 5 6 5 4 4 4 3 4 4 3 4 6 7 8 8 8 8 8 8 8 8 8 7 7 6 5 6 6 7 7 7 8
4 5 2 3 4 2 1 2 2 2 4 3 2 2 3 8 7 6 5 4 3 3 3 3 3 3 3 3 4 5 6 7 7 6 8 7 5 5 5 6 7 7 6 7 7 8 9 9 8
4 3 3 3 3 3 2 3 3 3 4 3 3 4 6 9 8 7 5 3 2 1 1 2 2 2 2 3 3 3 3 4 4 4 4 4 3 4 5 7 9 9 9 9 9 9 8 6 4
3 3 1 0 2 3 3 2 2 5 2 3 5 7 8 7 7 6 5 4 3 2 2 2 2 2 2 2 2 2 2 3 3 4 4 3 3 3 4 3 4 5 7 5 6 6 4 4 3
3 0 2 1 1 3 3 3 2 2 3 4 7 10 9 8 7 6 6 4 3 2 2 2 2 2 2 2 2 2 2 2 2 3 3 3 2 3 3 3 3 3 2 3 3 3 4 4 4
2 0 1 2 3 4 4 3 2 1 0 5 8 9 8 8 6 4 4 4 3 3 2 2 2 2 2 2 1 2 2 2 2 2 2 2 2 2 2 2 3 3 2 3 3 3 4 4 4
2 1 2 2 3 2 4 1 1 1 3 7 8 8 7 7 6 5 4 4 4 4 3 2 2 2 3 2 2 2 2 2 2 2 2 2 2 2 2 3 3 3 2 2 2 3 3 3 3
3 3 4 2 2 1 3 2 1 2 5 6 6 6 6 5 4 5 6 5 5 4 3 3 3 3 3 2 2 2 2 2 2 2 2 2 2 2 2 2 2 2 2 3 3 3 3 3 3
3 4 1 2 1 1 3 2 3 3 6 6 5 5 5 4 4 4 4 4 4 4 4 3 3 4 3 3 2 2 2 2 2 2 2 2 3 3 2 2 2 2 2 2 3 3 3 3 3
3 2 1 2 0 2 3 3 3 3 5 5 5 5 5 4 3 3 4 4 5 4 4 4 3 4 4 3 2 2 2 2 2 2 2 2 3 3 3 2 2 2 2 2 2 3 2 2 3
2 2 1 2 1 2 2 4 4 2 4 5 5 4 4 4 5 4 4 4 4 4 4 4 3 3 4 3 3 3 3 2 2 2 2 2 2 3 3 3 3 3 3 3 3 3 3 2 2
4 3 1 3 1 2 3 5 6 3 4 5 5 5 5 6 4 2 3 3 4 4 4 4 4 4 4 2 2 2 2 1 1 1 2 2 2 3 3 3 3 3 2 2 2 2 3 3 2
3 2 1 2 1 2 2 4 5 3 5 6 7 7 7 4 2 2 2 4 5 5 5 5 5 5 4 3 2 2 2 1 1 1 2 2 2 2 2 3 2 2 2 3 3 2 2 2 2
2 3 3 2 2 2 1 4 4 3 2 2 4 5 5 6 6 4 3 4 4 5 6 6 5 5 5 4 3 3 3 2 2 1 1 1 1 2 2 2 2 2 2 2 1 2 2 1 2
2 3 3 2 1 2 1 3 6 3 3 3 4 5 5 6 5 5 5 4 6 6 5 5 6 5 5 5 4 4 3 2 2 1 1 0 1 1 2 2 2 2 2 2 1 2 1 2 1
4 1 2 1 2 1 1 1 8 2 3 5 5 6 6 6 6 6 6 6 6 6 5 5 5 4 4 4 5 4 3 2 1 1 2 1 1 1 1 2 2 2 1 1 1 1 1 1 1
3 5 5 4 4 1 3 3 7 4 5 4 4 5 6 6 6 6 5 4 3 4 5 5 6 5 4 5 4 5 5 4 3 2 2 1 0 0 1 1 1 1 1 1 1 1 2 1 1
4 5 3 4 3 4 2 3 8 5 4 5 5 5 4 5 5 5 5 4 4 5 5 5 6 5 5 5 5 5 5 5 5 4 3 2 1 1 2 2 2 1 1 2 1 2 1 1 1
3 7 6 4 3 4 2 4 7 4 3 2 2 3 3 4 5 6 6 6 6 6 6 6 7 6 6 6 5 5 4 4 3 4 3 3 3 3 3 3 2 2 2 2 2 1 1 1 1
4 3 5 5 2 2 4 5 7 1 3 3 2 2 1 2 4 5 4 5 5 6 6 7 7 6 6 6 5 4 4 4 4 4 3 3 2 2 3 3 3 2 2 2 2 1 1 1 1
4 7 5 4 3 2 5 4 4 3 3 2 1 0 1 1 2 2 3 4 4 5 5 5 6 7 6 6 5 5 5 4 4 3 4 3 3 3 3 3 3 3 2 3 2 2 1 2 1
3 3 4 4 4 4 3 7 5 4 3 3 3 2 2 2 2 2 2 2 2 3 3 4 5 5 5 5 5 5 4 4 3 3 4 4 3 3 4 4 3 3 3 3 3 3 2 2 2
3 5 6 4 3 3 3 8 3 3 2 2 2 1 1 1 1 1 1 2 2 2 3 4 4 5 5 5 4 4 4 4 4 4 4 4 4 4 4 4 4 4 4 4 4 4 3 3 3
Wind_Direction
16 67 75 56 54 53 48 339 141 70 62 51 71 86 96 86 104 130 80 95 105 112 116 119 108 100 96 90 86 84 86 86 87 90 92 95 95 95 97 99 99 97 96 94 94 92 89 86 86
66 78 57 59 78 73 342 309 86 136 141 127 75 75 77 71 71 102 102 104 105 108 100 110 107 98 94 90 86 85 84 86 86 90 93 93 93 93 93 93 94 95 95 94 93 92 88 85 85
87 56 75 68 86 137 167 216 125 93 110 106 80 59 76 88 110 134 159 129 99 85 78 100 102 97 94 94 91 88 84 82 85 88 90 89 91 93 91 89 89 89 92 93 90 89 87 86 86
76 48 56 67 73 214 190 173 137 115 91 63 96 76 61 49 134 140 130 118 98 78 68 92 99 98 94 94 92 90 87 83 84 86 89 88 87 88 87 87 86 86 88 95 94 93 88 86 87
60 71 63 54 14 341 350 143 116 98 90 71 93 93 56 9 89 113 119 112 107 88 72 83 99 96 93 93 92 91 88 84 81 82 83 85 86 85 83 83 81 80 85 91 95 92 86 84 83
57 65 82 87 350 349 357 30 110 92 93 92 93 99 71 64 107 120 113 105 102 98 84 78 96 97 96 97 95 91 86 84 82 80 78 79 78 78 80 78 74 73 75 81 92 92 84 81 78
97 90 111 129 82 8 28 81 108 111 102 119 123 108 110 140 134 120 104 94 88 84 78 63 63 75 89 93 94 91 87 83 82 78 75 73 70 68 67 67 69 72 73 73 81 87 85 81 80
114 97 87 114 139 242 317 88 87 100 107 105 112 131 171 181 134 102 87 79 80 77 72 64 60 55 54 63 82 86 82 78 76 72 68 62 56 53 53 51 53 58 65 66 70 79 76 78 75
85 79 128 189 175 197 151 102 71 72 93 74 69 127 157 133 120 103 87 69 73 83 69 69 67 62 60 58 62 67 71 65 63 56 58 51 35 31 32 39 48 50 57 62 69 74 72 69 66
82 115 204 206 180 161 138 120 129 92 76 67 60 64 108 126 133 133 136 138 139 129 99 87 89 81 68 66 55 46 50 49 50 46 44 42 36 32 36 33 43 46 53 56 63 66 63 61 53
103 154 196 201 156 135 120 101 105 124 142 190 168 148 137 136 142 152 161 162 169 162 131 115 115 98 84 67 64 49 47 46 47 47 43 42 39 32 33 29 29 32 43 42 44 45 44 50 52
105 173 163 153 124 121 128 123 105 144 209 186 161 150 147 150 162 172 174 169 156 146 153 134 121 108 101 93 79 73 64 54 49 43 45 46 41 34 29 31 27 33 36 42 41 45 42 46 53
99 48 56 107 97 115 106 101 139 231 160 115 128 138 155 163 172 174 164 156 151 161 167 151 135 130 119 100 81 79 72 71 66 53 44 56 61 43 32 30 32 34 38 45 47 49 44 41 47
136 92 52 64 79 102 114 88 102 239 118 122 136 155 170 175 172 158 160 164 171 174 171 153 143 138 123 116 103 88 83 80 73 58 46 57 69 67 55 45 38 31 34 43 50 53 52 43 47
93 70 32 33 79 132 111 26 239 184 132 141 159 168 174 187 179 180 182 179 179 175 171 159 151 131 127 126 113 96 90 84 71 58 48 57 70 77 72 62 45 26 32 47 55 50 51 47 41
64 67 28 304 111 131 116 258 258 154 149 165 180 182 183 196 197 196 180 173 172 167 167 169 160 140 137 130 116 96 90 87 75 66 57 61 72 77 79 72 48 33 42 50 57 50 51 43 37
44 92 224 301 264 130 135 242 264 160 165 185 194 194 191 199 210 204 185 177 171 171 167 161 154 149 146 135 115 95 88 81 76 73 64 64 74 78 86 80 54 48 52 46 56 51 58 52 38
190 175 202 257 284 133 180 247 267 202 185 195 197 197 192 202 221 206 185 179 170 166 159 153 144 143 133 119 100 82 74 67 65 69 75 81 72 80 87 81 66 62 65 52 53 63 53 56 45
155 152 193 255 245 146 216 250 261 210 202 211 204 197 201 216 222 187 168 165 161 161 157 156 151 149 136 127 127 118 111 89 63 57 74 83 84 88 90 81 74 67 74 70 69 71 63 44 22
139 141 239 296 320 168 232 270 267 211 211 211 204 203 203 209 206 186 161 164 173 176 173 166 167 162 159 156 142 133 124 113 101 63 63 75 93 99 102 102 95 86 82 70 58 63 74 39 27
157 174 203 238 349 28 18 317 299 277 236 217 205 200 197 195 199 196 186 186 179 178 178 175 174 168 164 145 112 91 73 63 60 51 41 33 95 96 100 114 109 103 100 100 80 79 97 96 25
226 214 187 174 84 310 42 294 288 274 280 243 222 204 205 203 198 194 194 195 193 192 178 170 167 165 161 149 146 143 145 158 191 180 174 137 104 108 114 118 115 112 104 107 96 89 94 111 77
205 157 131 128 142 354 357 216 285 312 271 255 232 213 210 200 194 197 200 202 198 182 170 167 156 156 155 156 160 155 151 162 151 133 142 142 106 112 125 131 127 130 126 127 104 90 89 100 120
135 76 63 51 73 315 245 192 278 247 229 248 233 220 211 200 196 200 201 186 175 164 163 162 161 164 162 162 166 168 166 162 152 156 167 177 164 178 168 147 146 150 143 148 146 130 120 105 104
93 91 38 6 12 256 253 202 252 257 238 226 228 226 211 196 190 189 184 179 178 174 173 170 170 176 174 172 177 185 183 176 176 179 184 183 186 208 213 181 173 171 174 162 140 136 139 137 133
161 141 155 191 223 279 296 236 256 272 285 248 209 188 176 184 187 193 193 189 189 186 179 175 181 186 182 182 190 194 185 178 189 188 183 190 199 209 202 188 182 188 174 159 145 136 163 140 155
141 164 161 137 171 270 280 287 300 335 16 35 59 93 156 188 191 202 200 191 188 186 188 186 181 187 191 193 191 191 191 188 193 195 191 195 202 203 189 187 188 189 179 168 154 157 183 159 174
141 144 107 121 154 256 292 277 258 283 298 327 28 208 227 197 195 207 206 201 197 193 191 186 190 192 193 191 195 196 201 200 196 188 195 201 207 204 184 188 190 188 186 178 164 170 183 161 190
115 112 113 122 155 163 259 272 231 219 226 225 232 227 209 194 193 196 194 184 176 169 175 183 192 191 189 189 193 196 201 199 192 198 207 204 201 198 195 196 192 192 195 188 179 192 180 183 207
170 167 147 153 209 179 192 266 278 217 226 212 227 243 190 175 168 149 151 138 145 168 184 190 191 193 198 190 187 201 198 193 198 212 217 202 200 202 203 198 197 203 203 194 193 203 196 195 207